Altus, OK

4:33 AM CDT on July 26, 2017 (GMT -0500)
Altus Municipal

Weather History for KAXS - July, 2013

Change the Weather History Date:

Thursday, July 4, 2013

  Actual Average (KLTS) Record (KLTS)
Temperature  
Mean Temperature 81 °F -  
Max Temperature 96 °F 92 °F 105 °F (1996)
Min Temperature 66 °F 70 °F 62 °F (1997)
Cooling Degree Days 16    
Growing Degree Days 31 (Base 50)    
Moisture  
Dew Point 47 °F    
Average Humidity 33    
Maximum Humidity 62    
Minimum Humidity 15    
Precipitation  
Precipitation 0.00 in - - ()
Sea Level Pressure  
Sea Level Pressure 29.97 in    
Wind  
Wind Speed 10 mph (SE)    
Max Wind Speed 17 mph    
Max Gust Speed 24 mph    
Visibility 10 miles    
Events Rain , Thunderstorm    
Averages and records for this station are not official NWS values.
T = Trace of Precipitation, MM = Missing Value Source: NWS Daily Summary

Daily Weather History Graph

Daily Weather History Graph

Search for Another Location

Airport or City:

Trip Planner

Search our weather history database for the weather conditions in past years. The results will help you decide how hot, cold, wet, or windy it might be!

Date:

Astronomy

Jul. 04, 2013 Rise Set
Actual Time 6:29 AM CDT 8:54 PM CDT
Civil Twilight 6:00 AM CDT 9:23 PM CDT
Nautical Twilight 5:23 AM CDT 9:59 PM CDT
Astronomical Twilight 4:44 AM CDT 10:39 PM CDT
Moon 3:44 AM CDT (7/4) 6:02 PM CDT (7/4)
Length of Visible Light 15h 23m
Length of Day
14h 24m
Waning Crescent, 11% of the Moon is Illuminated
Jul 4
Waning Crescent
Jul 8
New
Jul 15
First Quarter
Jul 22
Full
Jul 29
Last Quarter

Hourly Weather History & Observations

Time (CDT) Temp. Dew Point Humidity Pressure Visibility Wind Dir Wind Speed Gust Speed Precip Events Conditions
12:15 AM 76.3 °F 45.5 °F 33% 30.00 in 10.0 mi SE 13.8 mph - N/A   Clear
12:35 AM 76.1 °F 45.7 °F 34% 30.01 in 10.0 mi SE 10.4 mph - N/A   Clear
12:55 AM 74.5 °F 46.4 °F 37% 30.01 in 10.0 mi SE 9.2 mph - N/A   Clear
1:15 AM 73.0 °F 46.8 °F 39% 30.01 in 10.0 mi ESE 8.1 mph - N/A   Clear
1:35 AM 72.0 °F 47.3 °F 41% 30.01 in 10.0 mi ESE 8.1 mph - N/A   Clear
1:55 AM 71.1 °F 47.5 °F 43% 30.00 in 10.0 mi ESE 6.9 mph - N/A   Clear
2:15 AM 70.7 °F 47.7 °F 44% 30.00 in 10.0 mi ESE 9.2 mph - N/A   Clear
2:35 AM 70.2 °F 48.0 °F 45% 30.00 in 10.0 mi ESE 10.4 mph - N/A   Clear
2:55 AM 69.8 °F 48.4 °F 46% 29.99 in 10.0 mi ESE 9.2 mph - N/A   Clear
3:15 AM 68.9 °F 48.6 °F 48% 29.99 in 10.0 mi ESE 9.2 mph - N/A   Clear
3:35 AM 68.4 °F 48.7 °F 49% 29.98 in 10.0 mi ESE 10.4 mph - N/A   Clear
3:55 AM 67.8 °F 48.7 °F 50% 29.99 in 10.0 mi ESE 9.2 mph - N/A   Clear
4:15 AM 67.1 °F 49.1 °F 52% 29.98 in 10.0 mi ESE 8.1 mph - N/A   Clear
4:35 AM 66.6 °F 49.1 °F 53% 29.98 in 10.0 mi East 9.2 mph - N/A   Clear
4:55 AM 66.7 °F 49.3 °F 53% 29.99 in 10.0 mi Calm Calm - N/A   Clear
5:15 AM 67.3 °F 49.3 °F 52% 29.99 in 10.0 mi SSE 10.4 mph - N/A   Scattered Clouds
5:35 AM 68.0 °F 51.8 °F 56% 29.98 in 10.0 mi SSE 5.8 mph - N/A Rain , Thunderstorm Light Thunderstorms and Rain
5:55 AM 67.1 °F 51.4 °F 57% 30.01 in 10.0 mi NE 3.5 mph - N/A   Scattered Clouds
6:15 AM 67.1 °F 53.6 °F 62% 30.04 in 10.0 mi NW 4.6 mph - N/A   Clear
6:35 AM 67.8 °F 52.9 °F 59% 30.02 in 10.0 mi ESE 10.4 mph - N/A   Clear
6:55 AM 67.6 °F 53.4 °F 60% 30.03 in 10.0 mi East 12.7 mph - N/A   Light Drizzle
7:15 AM 68.5 °F 51.6 °F 55% 30.04 in 10.0 mi East 5.8 mph - N/A   Scattered Clouds
7:35 AM 68.9 °F 51.3 °F 53% 30.04 in 10.0 mi East 3.5 mph - N/A   Clear
7:55 AM 68.9 °F 52.7 °F 56% 30.04 in 10.0 mi East 4.6 mph - N/A   Clear
8:15 AM 71.2 °F 52.2 °F 51% 30.04 in 10.0 mi ESE 8.1 mph - N/A   Clear
8:35 AM 74.5 °F 51.6 °F 45% 30.03 in 10.0 mi SE 10.4 mph - N/A   Clear
8:55 AM 75.4 °F 51.6 °F 43% 30.03 in 10.0 mi SE 13.8 mph - N/A   Clear
9:15 AM 75.6 °F 52.5 °F 45% 30.03 in 10.0 mi ESE 9.2 mph - N/A   Clear
9:35 AM 75.2 °F 52.9 °F 46% 30.03 in 10.0 mi ESE 11.5 mph - N/A   Clear
9:55 AM 75.4 °F 53.6 °F 47% 30.03 in 10.0 mi ESE 8.1 mph - N/A   Clear
10:15 AM 77.0 °F 53.1 °F 43% 30.02 in 10.0 mi ESE 6.9 mph - N/A   Clear
10:35 AM 78.3 °F 53.4 °F 42% 30.02 in 10.0 mi SE 5.8 mph - N/A   Clear
10:55 AM 79.9 °F 53.4 °F 40% 30.03 in 10.0 mi SSE 8.1 mph - N/A   Clear
11:15 AM 83.3 °F 52.3 °F 34% 30.02 in 10.0 mi South 9.2 mph - N/A   Clear
11:35 AM 86.2 °F 50.4 °F 29% 30.02 in 10.0 mi SSE 10.4 mph - N/A   Clear
11:55 AM 87.3 °F 49.6 °F 27% 30.01 in 10.0 mi South 12.7 mph 18.4 mph N/A   Clear
12:15 PM 88.7 °F 48.0 °F 24% 30.01 in 10.0 mi SSE 11.5 mph 19.6 mph N/A   Clear
12:35 PM 89.8 °F 47.8 °F 23% 30.00 in 10.0 mi South 11.5 mph 16.1 mph N/A   Clear
12:55 PM 90.7 °F 45.9 °F 21% 30.00 in 10.0 mi SSE 3.5 mph 9.2 mph N/A   Clear
1:15 PM 91.8 °F 43.3 °F 19% 29.99 in 10.0 mi SSE 11.5 mph 19.6 mph N/A   Clear
1:35 PM 91.9 °F 44.2 °F 19% 29.98 in 10.0 mi SSE 11.5 mph 18.4 mph N/A   Clear
1:55 PM 93.0 °F 45.1 °F 19% 29.97 in 10.0 mi SSE 12.7 mph 23.0 mph N/A   Clear
2:15 PM 93.4 °F 43.9 °F 18% 29.97 in 10.0 mi South 17.3 mph 21.9 mph N/A   Clear
2:35 PM 93.4 °F 43.7 °F 18% 29.96 in 10.0 mi South 8.1 mph 18.4 mph N/A   Clear
2:55 PM 94.5 °F 43.5 °F 17% 29.95 in 10.0 mi SW 15.0 mph 18.4 mph N/A   Clear
3:15 PM 94.8 °F 42.6 °F 16% 29.94 in 10.0 mi South 17.3 mph 24.2 mph N/A   Clear
3:35 PM 93.0 °F 43.0 °F 18% 29.94 in 10.0 mi South 12.7 mph 24.2 mph N/A   Clear
3:55 PM 93.7 °F 43.0 °F 17% 29.93 in 10.0 mi SSE 9.2 mph 16.1 mph N/A   Clear
4:15 PM 95.4 °F 43.0 °F 16% 29.92 in 10.0 mi South 15.0 mph 19.6 mph N/A   Clear
4:35 PM 96.1 °F 41.4 °F 15% 29.92 in 10.0 mi SW 12.7 mph 23.0 mph N/A   Clear
4:55 PM 96.3 °F 41.2 °F 15% 29.91 in 10.0 mi SSW 10.4 mph 18.4 mph N/A   Clear
5:15 PM 94.6 °F 42.1 °F 16% 29.90 in 10.0 mi South 10.4 mph 18.4 mph N/A   Clear
5:35 PM 96.1 °F 41.7 °F 15% 29.90 in 10.0 mi SSE 12.7 mph 17.3 mph N/A   Clear
5:55 PM 95.0 °F 41.9 °F 16% 29.89 in 10.0 mi South 8.1 mph 20.7 mph N/A   Clear
6:15 PM 95.0 °F 40.8 °F 15% 29.88 in 10.0 mi South 11.5 mph - N/A   Clear
6:35 PM 94.8 °F 41.2 °F 16% 29.88 in 10.0 mi South 12.7 mph - N/A   Clear
6:55 PM 95.7 °F 40.6 °F 15% 29.87 in 10.0 mi South 11.5 mph 17.3 mph N/A   Clear
7:15 PM 94.1 °F 42.4 °F 17% 29.88 in 10.0 mi SSE 12.7 mph - N/A   Clear
7:35 PM 93.2 °F 42.1 °F 17% 29.88 in 10.0 mi SSE 11.5 mph - N/A   Clear
7:55 PM 92.7 °F 42.1 °F 17% 29.88 in 10.0 mi SSE 11.5 mph - N/A   Clear
8:15 PM 92.5 °F 42.6 °F 18% 29.88 in 10.0 mi SE 9.2 mph - N/A   Clear
8:35 PM 90.9 °F 43.7 °F 19% 29.88 in 10.0 mi SE 11.5 mph - N/A   Clear
8:55 PM 90.0 °F 43.5 °F 20% 29.89 in 10.0 mi SE 15.0 mph 20.7 mph N/A   Clear
9:15 PM 88.3 °F 43.7 °F 21% 29.90 in 10.0 mi SE 11.5 mph - N/A   Clear
9:35 PM 86.9 °F 43.9 °F 22% 29.91 in 10.0 mi SE 12.7 mph - N/A   Clear
9:55 PM 85.3 °F 44.2 °F 24% 29.92 in 10.0 mi ESE 11.5 mph - N/A   Clear
10:15 PM 85.1 °F 45.3 °F 25% 29.93 in 10.0 mi ESE 15.0 mph - N/A   Clear
10:35 PM 83.5 °F 46.4 °F 27% 29.94 in 10.0 mi ESE 13.8 mph - N/A   Clear
10:55 PM 82.8 °F 47.7 °F 29% 29.94 in 10.0 mi ESE 13.8 mph - N/A   Clear
11:15 PM 81.9 °F 48.2 °F 31% 29.95 in 10.0 mi SE 15.0 mph - N/A   Clear
11:35 PM 81.9 °F 48.2 °F 31% 29.95 in 10.0 mi SE 15.0 mph - N/A   Clear
11:55 PM 80.6 °F 48.6 °F 33% 29.95 in 10.0 mi SE 12.7 mph - N/A   Clear